TimeCEST,TemperatureF,Dew PointF,Humidity,Sea Level PressureIn,VisibilityMPH,Wind Direction,Wind SpeedMPH,Gust SpeedMPH,PrecipitationIn,Events,Conditions,WindDirDegrees,DateUTC
12:00 AM,60.8,57.2,88,29.98,-9999.0,SSE,3.5,-,N/A,,Clear,150,2013-05-08 22:00:00
1:00 AM,60.8,57.2,88,29.98,-9999.0,SSE,5.8,-,N/A,,Clear,160,2013-05-08 23:00:00
2:00 AM,60.8,57.2,88,29.98,-9999.0,SSE,4.6,-,N/A,,Clear,160,2013-05-09 00:00:00
3:00 AM,57.2,55.4,94,29.95,6.2,Calm,Calm,-,N/A,,Unknown,0,2013-05-09 01:00:00
4:00 AM,59.0,57.2,94,29.95,-9999.0,Calm,Calm,-,N/A,,Clear,0,2013-05-09 02:00:00
5:00 AM,57.2,55.4,94,29.95,-9999.0,South,3.5,-,N/A,,Clear,170,2013-05-09 03:00:00
6:00 AM,57.2,55.4,94,29.98,-9999.0,Calm,Calm,-,N/A,,Clear,0,2013-05-09 04:00:00
7:00 AM,60.8,57.2,88,29.98,-9999.0,Calm,Calm,-,N/A,,Clear,0,2013-05-09 05:00:00
8:00 AM,64.4,57.2,77,29.98,-9999.0,SSE,5.8,-,N/A,,Clear,160,2013-05-09 06:00:00
9:00 AM,68.0,57.2,68,29.98,-9999.0,SE,5.8,-,N/A,,Clear,130,2013-05-09 07:00:00
10:00 AM,69.8,57.2,64,29.98,-9999.0,ESE,4.6,-,N/A,,Clear,120,2013-05-09 08:00:00
11:00 AM,71.6,59.0,64,29.98,6.2,Variable,1.2,-,N/A,,Scattered Clouds,0,2013-05-09 09:00:00
12:00 PM,73.4,57.2,57,29.98,6.2,East,4.6,-,N/A,,Scattered Clouds,90,2013-05-09 10:00:00
1:00 PM,75.2,59.0,57,29.95,6.2,Variable,2.3,-,N/A,,Scattered Clouds,0,2013-05-09 11:00:00
2:00 PM,77.0,59.0,54,29.95,6.2,Variable,2.3,-,N/A,,Scattered Clouds,0,2013-05-09 12:00:00
3:00 PM,77.0,59.0,54,29.95,6.2,East,3.5,-,N/A,,Mostly Cloudy,100,2013-05-09 13:00:00
4:00 PM,75.2,57.2,53,29.92,6.2,SSE,9.2,-,N/A,Thunderstorm,Mostly Cloudy,160,2013-05-09 14:00:00
5:00 PM,75.2,57.2,53,29.92,5.0,SE,12.7,34.5,N/A,Rain-Thunderstorm,Light Thunderstorms and Rain,140,2013-05-09 15:00:00
6:00 PM,66.2,60.8,83,29.92,6.2,WNW,5.8,-,N/A,Thunderstorm,Scattered Clouds,300,2013-05-09 16:00:00
7:02 PM,66.2,59.0,78,29.89,6.2,Variable,2.3,-,N/A,Thunderstorm,Scattered Clouds,0,2013-05-09 17:02:00
7:14 PM,66.2,62.6,88,29.92,6.2,Variable,4.6,-,N/A,Rain-Thunderstorm,Light Thunderstorms and Rain,0,2013-05-09 17:14:00
7:19 PM,64.4,62.6,94,29.92,3.7,Variable,4.6,-,N/A,Rain-Thunderstorm,Thunderstorms and Rain,0,2013-05-09 17:19:00
7:29 PM,60.8,59.0,94,29.95,1.2,SSW,13.8,24.2,N/A,Hail-Thunderstorm,Thunderstorms with Hail,210,2013-05-09 17:29:00
7:35 PM,60.8,59.0,94,29.92,3.7,South,6.9,20.7,N/A,Rain-Thunderstorm,Thunderstorms and Rain,170,2013-05-09 17:35:00
7:45 PM,62.6,60.8,94,29.92,5.0,SE,5.8,-,N/A,Rain-Thunderstorm,Light Thunderstorms and Rain,130,2013-05-09 17:45:00
8:00 PM,60.8,59.0,94,29.92,5.0,East,8.1,-,N/A,Rain-Thunderstorm,Light Thunderstorms and Rain,90,2013-05-09 18:00:00
8:14 PM,60.8,59.0,94,29.92,6.2,NE,5.8,-,N/A,Rain,Light Rain,50,2013-05-09 18:14:00
9:00 PM,59.0,59.0,100,29.92,-9999.0,South,4.6,-,N/A,,Clear,170,2013-05-09 19:00:00
10:00 PM,57.2,57.2,100,29.92,6.2,East,3.5,-,N/A,,Scattered Clouds,90,2013-05-09 20:00:00
11:00 PM,57.2,55.4,94,29.92,-9999.0,Variable,2.3,-,N/A,,Clear,0,2013-05-09 21:00:00